GW4730 Weather Reports


Display with metric or nautical units.
time (UTC)temp
F
wind
direction
speed
MPH
gust
MPH
rain 1hr
in
rain 24hr
in
rain mn
in
humidity
%
barometer
mb
20260504050328 0 0.0 0.0 0.00 0.00 0.00 1017.0
20260504045825 0 0.0 0.0 0.00 0.00 0.00 1017.1
20260504045320 0 0.0 0.0 0.00 0.00 0.00 1017.3
20260504044817 0 0.0 0.0 0.00 0.00 0.00 1017.2
20260504044314 0 0.0 0.0 0.00 0.00 0.00 1017.1
20260504043811 0 0.0 0.0 0.00 0.00 0.00 1017.1
20260504043308 0 0.0 0.0 0.00 0.00 0.00 1017.2
20260504042806 0 0.0 0.0 0.00 0.00 0.00 1017.0
20260504042304 0 0.0 0.0 0.00 0.00 0.00 1017.1
20260504041759 0 0.0 0.0 0.00 0.00 0.00 1017.1
20260504041255 0 0.0 0.0 0.00 0.00 0.00 1017.3
20260504040751 0 0.0 0.0 0.00 0.00 0.00 1017.1
20260504040249 0 0.0 0.0 0.00 0.00 0.00 1017.0
20260504035744 38 62 0.0 0.0 0.00 0.00 0.00 87 1017.0
20260504035242 38 62 0.0 0.0 0.00 0.00 0.00 87 1017.0
20260504034739 37 69 0.0 0.0 0.00 0.00 0.00 89 1017.0
20260504034236 37 69 0.0 0.0 0.00 0.00 0.00 89 1017.0
20260504033734 37 56 0.0 0.0 0.00 0.00 0.00 89 1016.7
20260504033231 37 17 0.0 0.0 0.00 0.00 0.00 88 1016.9
20260504032728 38 8 0.0 0.0 0.00 0.00 0.00 87 1017.0
20260504032225 38 8 0.0 0.0 0.00 0.00 0.00 87 1017.0
20260504031722 0 0.0 0.0 0.00 0.00 0.00 1016.5
20260504031219 0 0.0 0.0 0.00 0.00 0.00 1016.7
20260504030715 0 0.0 0.0 0.00 0.00 0.00 1017.0
20260504030212 41 75 0.0 0.0 0.00 0.00 0.00 80 1017.1
20260504025709 41 75 0.0 0.0 0.00 0.00 0.00 80 1016.7
20260504025205 41 76 0.0 0.0 0.00 0.00 0.00 81 1016.7
20260504024703 41 79 0.0 0.0 0.00 0.00 0.00 80 1016.6
20260504024159 41 92 0.0 0.0 0.00 0.00 0.00 79 1016.2
20260504023656 40 95 0.0 0.0 0.00 0.00 0.00 80 1016.7
20260504023152 40 80 0.0 1.0 0.00 0.00 0.00 81 1016.4
20260504022648 40 90 0.0 0.0 0.00 0.00 0.00 81 1016.4
20260504022144 40 111 0.0 0.0 0.00 0.00 0.00 81 1016.2
20260504021642 40 171 0.0 0.0 0.00 0.00 0.00 81 1016.2
20260504021139 42 130 0.0 2.0 0.00 0.00 0.00 80 1016.2
20260504020636 42 1 0.0 0.0 0.00 0.00 0.00 76 1016.0
20260504020132 41 20 0.0 0.0 0.00 0.00 0.00 78 1016.2
20260504015628 41 53 0.0 0.0 0.00 0.00 0.00 78 1016.3
20260504015125 42 53 0.0 0.0 0.00 0.00 0.00 77 1016.1
20260504014621 42 65 0.0 0.0 0.00 0.00 0.00 76 1016.2
20260504014118 42 25 0.0 0.0 0.00 0.00 0.00 75 1016.2
20260504013615 43 358 0.0 0.0 0.00 0.00 0.00 74 1016.2
20260504013112 43 0 0.0 0.0 0.00 0.00 0.00 73 1016.1
20260504012610 44 78 0.0 0.0 0.00 0.00 0.00 71 1016.0
20260504012108 43 79 0.0 1.0 0.00 0.00 0.00 73 1016.1
20260504011604 43 78 0.0 0.0 0.00 0.00 0.00 73 1015.8
20260504011100 44 78 0.0 0.0 0.00 0.00 0.00 71 1016.0
20260504010556 46 78 0.0 1.0 0.00 0.00 0.00 66 1016.0
20260504010052 46 86 1.0 2.0 0.00 0.00 0.00 65 1015.8
20260504005549 45 132 0.0 0.0 0.00 0.00 0.00 66 1015.8
20260504005046 46 132 0.0 0.0 0.00 0.00 0.00 63 1015.7
20260504004544 47 132 0.0 0.0 0.00 0.00 0.00 64 1015.8
20260504004041 47 133 0.0 0.0 0.00 0.00 0.00 63 1015.8
20260504003537 49 133 0.0 0.0 0.00 0.00 0.00 62 1015.8
20260504003034 50 133 0.0 0.0 0.00 0.00 0.00 61 1015.8
20260504002531 51 137 0.0 0.0 0.00 0.00 0.00 51 1015.8
20260504002028 52 147 0.0 0.0 0.00 0.00 0.00 46 1015.9
20260504001526 53 147 0.0 0.0 0.00 0.00 0.00 44 1015.5
20260504001022 54 155 0.0 0.0 0.00 0.00 0.00 43 1015.8
20260504000520 55 199 0.0 1.0 0.00 0.00 0.00 46 1015.7
20260504000017 57 227 0.0 2.0 0.00 0.00 0.00 40 1015.7
20260503235515 57 228 0.0 2.0 0.00 0.00 0.00 35 1015.7
20260503235011 58 231 1.0 1.0 0.00 0.00 0.00 36 1015.5
20260503234509 58 253 0.0 1.0 0.00 0.00 0.00 35 1015.5
20260503234007 59 230 2.0 2.0 0.00 0.00 0.00 34 1015.6
20260503233503 60 234 2.0 6.0 0.00 0.00 0.00 35 1015.3
20260503232959 60 251 1.0 2.0 0.00 0.00 0.00 34 1015.4
20260503232456 61 205 1.0 2.0 0.00 0.00 0.00 35 1015.4
20260503231954 61 235 1.0 3.0 0.00 0.00 0.00 32 1015.4
20260503231451 61 246 1.0 2.0 0.00 0.00 0.00 32 1015.3
20260503230948 61 277 3.0 3.0 0.00 0.00 0.00 31 1015.5
20260503230444 61 244 3.0 4.0 0.00 0.00 0.00 34 1015.4
20260503225942 61 301 4.0 7.0 0.00 0.00 0.00 33 1015.4
20260503225439 61 247 4.0 7.0 0.00 0.00 0.00 31 1015.3
20260503224934 61 216 3.0 9.0 0.00 0.00 0.00 32 1015.3
20260503224431 62 293 6.0 13.0 0.00 0.00 0.00 31 1015.2
20260503223929 61 249 5.0 8.0 0.00 0.00 0.00 29 1015.0
20260503223427 62 200 4.0 7.0 0.00 0.00 0.00 34 1015.2
20260503222922 62 271 6.0 9.0 0.00 0.00 0.00 30 1015.2
20260503222421 62 266 6.0 9.0 0.00 0.00 0.00 31 1015.1
20260503221919 62 247 5.0 7.0 0.00 0.00 0.00 31 1015.4
20260503221417 62 210 8.0 10.0 0.00 0.00 0.00 31 1015.3
20260503220913 62 228 3.0 10.0 0.00 0.00 0.00 35 1015.5
20260503220410 62 255 4.0 9.0 0.00 0.00 0.00 31 1015.5
20260503215907 62 256 8.0 11.0 0.00 0.00 0.00 31 1015.6
20260503215404 62 253 8.0 14.0 0.00 0.00 0.00 31 1015.3
20260503214901 62 230 14.0 17.0 0.00 0.00 0.00 30 1015.4
20260503214358 62 248 8.0 10.0 0.00 0.00 0.00 30 1015.5
20260503213856 63 280 7.0 14.0 0.00 0.00 0.00 32 1015.4
20260503213354 62 90 2.0 11.0 0.00 0.00 0.00 33 1015.2
20260503212850 62 209 5.0 11.0 0.00 0.00 0.00 31 1015.2
20260503212348 62 241 5.0 16.0 0.00 0.00 0.00 31 1015.2
20260503211845 62 326 4.0 9.0 0.00 0.00 0.00 28 1015.5
20260503211342 62 275 8.0 9.0 0.00 0.00 0.00 33 1015.4
20260503210837 62 226 9.0 15.0 0.00 0.00 0.00 29 1015.4
20260503210334 62 205 4.0 15.0 0.00 0.00 0.00 31 1015.4
20260503205829 62 242 9.0 13.0 0.00 0.00 0.00 32 1015.2
20260503205326 62 253 7.0 10.0 0.00 0.00 0.00 31 1015.4
20260503204823 62 281 11.0 15.0 0.00 0.00 0.00 31 1015.3
20260503204320 62 249 8.0 10.0 0.00 0.00 0.00 30 1015.5
20260503203817 62 228 8.0 15.0 0.00 0.00 0.00 32 1015.3
20260503203315 62 319 7.0 14.0 0.00 0.00 0.00 33 1015.5
20260503202811 62 240 2.0 9.0 0.00 0.00 0.00 33 1015.4
20260503202310 61 244 7.0 15.0 0.00 0.00 0.00 37 1015.7
20260503201807 62 251 9.0 13.0 0.00 0.00 0.00 32 1015.7
20260503201304 62 27 6.0 11.0 0.00 0.00 0.00 32 1015.8
20260503200802 61 313 5.0 10.0 0.00 0.00 0.00 36 1015.7
20260503200257 60 298 6.0 9.0 0.00 0.00 0.00 32 1015.8
20260503195755 62 284 6.0 8.0 0.00 0.00 0.00 33 1015.9
20260503195251 61 281 5.0 7.0 0.00 0.00 0.00 31 1016.0
20260503194749 62 287 11.0 13.0 0.00 0.00 0.00 30 1016.2
20260503194244 62 269 4.0 4.0 0.00 0.00 0.00 34 1016.2
20260503193741 61 109 3.0 4.0 0.00 0.00 0.00 30 1016.1
20260503193237 61 236 3.0 8.0 0.00 0.00 0.00 30 1016.2
20260503192733 61 265 4.0 8.0 0.00 0.00 0.00 32 1016.3
20260503192228 60 305 5.0 8.0 0.00 0.00 0.00 34 1016.4
20260503191725 59 232 7.0 11.0 0.00 0.00 0.00 32 1016.4
20260503191222 60 274 8.0 14.0 0.00 0.00 0.00 31 1016.5
20260503190719 60 354 4.0 8.0 0.00 0.00 0.00 31 1016.9
20260503190215 60 216 5.0 7.0 0.00 0.00 0.00 31 1016.6
20260503185713 60 334 8.0 11.0 0.00 0.00 0.00 31 1016.9
20260503185208 59 238 5.0 16.0 0.00 0.00 0.00 36 1016.9
20260503184703 59 247 5.0 8.0 0.00 0.00 0.00 37 1016.9
20260503184200 59 264 12.0 17.0 0.00 0.00 0.00 33 1017.2
20260503183656 60 235 9.0 13.0 0.00 0.00 0.00 34 1017.3
20260503183153 59 270 5.0 8.0 0.00 0.00 0.00 34 1017.0
20260503182651 59 200 4.0 8.0 0.00 0.00 0.00 35 1017.1
20260503182150 59 288 10.0 13.0 0.00 0.00 0.00 35 1017.1
20260503181646 57 294 6.0 7.0 0.00 0.00 0.00 35 1017.2
20260503181143 57 241 3.0 8.0 0.00 0.00 0.00 40 1017.1
20260503180640 58 248 4.0 11.0 0.00 0.00 0.00 40 1017.5
20260503180138 58 286 9.0 14.0 0.00 0.00 0.00 35 1017.3
20260503175635 58 290 10.0 11.0 0.00 0.00 0.00 32 1017.4
20260503175132 57 268 6.0 7.0 0.00 0.00 0.00 40 1017.3
20260503174628 58 292 9.0 13.0 0.00 0.00 0.00 37 1017.3
20260503174126 56 241 3.0 11.0 0.00 0.00 0.00 43 1017.7
20260503173620 57 267 6.0 8.0 0.00 0.00 0.00 36 1017.7
20260503173117 57 257 6.0 8.0 0.00 0.00 0.00 39 1017.7
20260503172614 58 288 12.0 16.0 0.00 0.00 0.00 35 1017.7
20260503172112 56 358 2.0 2.0 0.00 0.00 0.00 36 1017.6
20260503171608 56 281 7.0 9.0 0.00 0.00 0.00 38 1017.7
20260503171105 56 256 9.0 15.0 0.00 0.00 0.00 39 1017.9
20260503170601 56 237 9.0 13.0 0.00 0.00 0.00 39 1018.1
20260503150954 50 318 6.0 7.0 0.00 0.00 0.00 47 1019.1
20260503150450 0 0.0 0.0 0.00 0.00 0.00 1019.1
20260503131343 0 0.0 0.0 0.00 0.00 0.00 1019.1
20260503130841 0 0.0 0.0 0.00 0.00 0.00 1019.1
20260503130338 0 0.0 0.0 0.00 0.00 0.00 1019.2
20260503110732 0 0.0 0.0 0.00 0.00 0.00 1018.5
20260503110229 0 0.0 0.0 0.00 0.00 0.00 1018.4
20260503100155 31 38 0.0 0.0 0.00 0.00 0.00 96 1017.5
20260503090115 33 71 0.0 0.0 0.00 0.00 0.00 93 1017.1
20260503081550 38 24 0.0 0.0 0.00 0.00 0.00 83 1017.0
20260503081048 38 182 0.0 0.0 0.00 0.00 0.00 82 1017.1
20260503080544 39 193 0.0 0.0 0.00 0.00 0.00 81 1017.0
20260503072517 38 268 0.0 0.0 0.00 0.00 0.00 85 1016.7
20260503072015 38 231 0.0 0.0 0.00 0.00 0.00 85 1016.6
20260503071511 37 225 0.0 0.0 0.00 0.00 0.00 86 1016.3
20260503071008 37 225 0.0 0.0 0.00 0.00 0.00 86 1016.4
20260503070505 36 225 0.0 0.0 0.00 0.00 0.00 88 1016.4